Tracking 23581 objects as of 27-Jul-2021
HD Live streaming from Space Station
objects crossing your sky now

SCOUT A DEB

Track SCOUT A DEB now!
10-day predictions


NORAD ID: 3214
Int'l Code: 1968-012D
Perigee: 1,019.7 km
Apogee: 1,298.8 km
Inclination: 89.9 °
Period: 108.4 minutes
Semi major axis: 7530 km
RCS: 0.049 m2 (small)
Launch date: March 2, 1968
Source: United States (US)
Launch site: AIR FORCE WESTERN TEST RANGE (AFWTR)

Note: This is SATELLITE DEBRIS
aabbcc
Your satellite tracking list
Your tracking list is empty




NASA's NSSDC Master Catalog

Two Line Element Set (TLE):
1 03214U 68012D   21207.53667485  .00000107  00000-0  19614-3 0  9995
2 03214  89.9152 127.4672 0185366 196.9422 336.9589 13.28585212347247
Source of the keplerian elements: AFSPC